Location: Newark
(34.5992°S, 58.3747°W)
Time: 00:41:09
(UTC+00:00)

STARLINK 1026 - Pass Details

Date: 09 December 2019
Orbit: 347 x 352 km, 53.0° (Epoch: 19 January)

Event Time Altitude Azimuth Distance (km) Brightness Sun altitude
Rises 23:15:58 0° 240° (WSW) 2,185 10.0 -4.0°
Reaches altitude 10° 23:18:17 10° 257° (WSW) 1,334 7.1 -4.4°
Maximum altitude 23:20:36 21° 308° (NW) 880 4.9 -4.8°
Drops below altitude 10° 23:22:54 10° 359° (N) 1,322 5.3 -5.2°
Enters shadow 23:24:57 - 15° (NNE) 2,063 6.1 -5.6°
